logo tempoitalia

Diretta Meteo Amendola, Italiasabato 18 maggio ore 10:55

Mappa
Sereno 23 °C Poco Nuvoloso 24 Ore: T.min 15 T.max 29
Ponente Nord Km/h 5.5 Punto di rugiada: 17 °C Umidità: 68% Visibilità: 8 Km
Il sole sorge alle: 05:32 Il sole tramonta alle: 20:14
18 Maggio 2024 10:55 tempo osservato: Poco Nuvoloso Poco Nuvoloso 23 68 1014 vento: Nord N 5.5
18 Maggio 2024 09:55 tempo osservato: Molto Nuvoloso Molto Nuvoloso 21 77 1014 vento: Nord O 9.3
18 Maggio 2024 08:55 tempo osservato: Foschia Foschia 18 100 1014 vento: Nord N 5.5
18 Maggio 2024 07:55 tempo osservato: Nebbia Nebbia 17 93 1014 vento: Nord N 3.7
18 Maggio 2024 06:55 tempo osservato: Nebbia Nebbia 16 100 1014 vento: Nord N 5.5
18 Maggio 2024 05:55 tempo osservato: Nebbia Nebbia 16 100 1013 vento: Nord N 5.5
18 Maggio 2024 04:55 tempo osservato: Nebbia Nebbia 16 100 1013 vento: Nord N 1.8
18 Maggio 2024 03:55 tempo osservato: Nebbia Nebbia 15 100 1013 vento: Nord N 5.5
18 Maggio 2024 02:55 tempo osservato: Nebbia Nebbia 15 93 1013 vento: Nord N 5.5
18 Maggio 2024 01:55 tempo osservato: Foschia Foschia 17 93 1013 vento: Nord N 3.7
18 Maggio 2024 00:55 tempo osservato: Sereno Sereno 17 93 1013 vento: Nord S 7.4
17 Maggio 2024 23:55 tempo osservato: Sereno Sereno 17 93 1014 vento: Nord N 5.5
17 Maggio 2024 22:55 tempo osservato: Sereno Sereno 18 88 1014 vento: Nord E 7.4
17 Maggio 2024 21:55 tempo osservato: Sereno Sereno 18 93 1014 vento: Nord E 9.3
17 Maggio 2024 20:55 tempo osservato: Sereno Sereno 19 88 1013 vento: Nord E 16.7
17 Maggio 2024 19:55 tempo osservato: Sereno Sereno 21 68 1013 vento: Nord E 18.5
17 Maggio 2024 18:55 tempo osservato: Sereno Sereno 23 56 1012 vento: Nord E 22.2
17 Maggio 2024 17:55 tempo osservato: Sereno Sereno 24 57 1012 vento: Nord E 27.8
17 Maggio 2024 16:55 tempo osservato: Sereno Sereno 26 50 1012 vento: Nord E 20.3
17 Maggio 2024 15:55 tempo osservato: Sereno Sereno 29 23 1011 vento: Nord SO 22.2
17 Maggio 2024 14:55 tempo osservato: Sereno Sereno 29 25 1011 vento: Nord SO 20.3
17 Maggio 2024 13:55 tempo osservato: Sereno Sereno 28 26 1011 vento: Nord O/SO 16.7
17 Maggio 2024 12:55 tempo osservato: Sereno Sereno 28 24 1012 vento: Nord S/SO 18.5
17 Maggio 2024 11:55 tempo osservato: Sereno Sereno 27 32 1012 vento: Nord S/SO 14.8